When you browse on this site, cookies collect data to enhance your experience and personalize the content and advertising you see.
Visit our Privacy Policy to learn more. By continuing to use the site, you agree to this use of cookies and data.
  • In Lithuania
  • List of Countries
  • For 7 days
  • Water Temperature
  • Satellite Maps
  • Weather Map
  • Weather Widgets
  • user-avatar
    Login

    Hourly Weather Can Tho

    Today, 20 November, Tuesday

    Time Temperature Precipitation Wind Pressure Humidity
    00:00 +27°C° 0.1 mm 3 mps 758 mmHg 90%
    01:00 +27°C° 0 mm 3 mps 758 mmHg 90%
    02:00 +27°C° 0 mm 3 mps 758 mmHg 90%
    03:00 +26°C° 0 mm 3 mps 758 mmHg 91%
    04:00 +26°C° 0 mm 3 mps 758 mmHg 91%
    05:00 +27°C° 0 mm 3 mps 758 mmHg 90%
    06:00 +27°C° 0 mm 3 mps 758 mmHg 89%
    07:00 +28°C° 0 mm 3 mps 759 mmHg 87%
    08:00 +29°C° 0.2 mm 4 mps 759 mmHg 81%
    09:00 +32°C° 0.2 mm 5 mps 759 mmHg 75%
    10:00 +33°C° 0.2 mm 6 mps 759 mmHg 69%
    11:00 +33°C° 0 mm 6 mps 759 mmHg 66%
    12:00 +34°C° 0 mm 6 mps 758 mmHg 63%
    13:00 +34°C° 0 mm 6 mps 758 mmHg 60%
    14:00 +34°C° 0 mm 6 mps 757 mmHg 62%
    15:00 +34°C° 0 mm 5 mps 757 mmHg 64%
    16:00 +33°C° 0 mm 5 mps 757 mmHg 66%
    17:00 +32°C° 0 mm 4 mps 757 mmHg 72%
    18:00 +29°C° 0 mm 3 mps 758 mmHg 78%
    19:00 +28°C° 0 mm 2 mps 758 mmHg 83%
    20:00 +28°C° 0 mm 2 mps 758 mmHg 85%
    21:00 +27°C° 0 mm 2 mps 759 mmHg 87%
    22:00 +27°C° 0 mm 2 mps 759 mmHg 89%
    23:00 +27°C° 0 mm 2 mps 759 mmHg 90%

    Tomorrow, 21 November, Wednesday

    Time Temperature Precipitation Wind Pressure Humidity
    00:00 +27°C° 0 mm 2 mps 759 mmHg 91%
    01:00 +27°C° 0 mm 1 mps 758 mmHg 91%
    02:00 +26°C° 0 mm 1 mps 758 mmHg 92%
    03:00 +26°C° 0 mm 1 mps 758 mmHg 92%
    04:00 +26°C° 0 mm 1 mps 758 mmHg 93%
    05:00 +27°C° 0 mm 1 mps 758 mmHg 91%
    06:00 +27°C° 0 mm 1 mps 758 mmHg 89%
    07:00 +27°C° 0 mm 1 mps 759 mmHg 87%
    08:00 +29°C° 0 mm 2 mps 759 mmHg 79%
    09:00 +31°C° 0 mm 2 mps 759 mmHg 71%
    10:00 +33°C° 0 mm 3 mps 759 mmHg 63%
    11:00 +34°C° 0 mm 3 mps 758 mmHg 60%
    12:00 +35°C° 0 mm 2 mps 758 mmHg 57%
    13:00 +35°C° 0 mm 2 mps 757 mmHg 54%
    14:00 +35°C° 0 mm 2 mps 756 mmHg 55%
    15:00 +35°C° 0 mm 2 mps 756 mmHg 56%
    16:00 +35°C° 0 mm 2 mps 756 mmHg 58%
    17:00 +32°C° 0 mm 2 mps 756 mmHg 63%
    18:00 +31°C° 0 mm 2 mps 756 mmHg 67%
    19:00 +30°C° 0 mm 2 mps 757 mmHg 72%
    20:00 +29°C° 0 mm 2 mps 757 mmHg 76%
    21:00 +28°C° 0 mm 2 mps 758 mmHg 80%
    22:00 +27°C° 0 mm 2 mps 758 mmHg 84%
    23:00 +27°C° 0 mm 2 mps 758 mmHg 86%

    Day after tomorrow, 22 November, Thursday

    Time Temperature Precipitation Wind Pressure Humidity
    00:00 +27°C° 0 mm 2 mps 758 mmHg 87%
    01:00 +27°C° 0 mm 2 mps 758 mmHg 88%
    02:00 +27°C° 0 mm 2 mps 758 mmHg 89%
    03:00 +27°C° 0 mm 1 mps 757 mmHg 90%
    04:00 +26°C° 0 mm 1 mps 757 mmHg 91%
    05:00 +27°C° 0 mm 1 mps 758 mmHg 90%
    06:00 +27°C° 0 mm 1 mps 758 mmHg 89%
    07:00 +28°C° 0 mm 1 mps 759 mmHg 87%
    08:00 +29°C° 0 mm 1 mps 759 mmHg 80%
    09:00 +31°C° 0 mm 1 mps 759 mmHg 72%
    10:00 +32°C° 0 mm 1 mps 759 mmHg 64%
    11:00 +34°C° 0 mm 2 mps 758 mmHg 59%
    12:00 +35°C° 0 mm 2 mps 758 mmHg 54%
    13:00 +36°C° 0 mm 3 mps 757 mmHg 49%
    14:00 +36°C° 0 mm 2 mps 756 mmHg 50%
    15:00 +36°C° 0 mm 2 mps 756 mmHg 50%
    16:00 +36°C° 0 mm 2 mps 755 mmHg 51%
    17:00 +34°C° 0 mm 2 mps 756 mmHg 57%
    18:00 +32°C° 0 mm 2 mps 757 mmHg 63%
    19:00 +30°C° 0 mm 1 mps 757 mmHg 69%
    20:00 +29°C° 0.1 mm 2 mps 758 mmHg 73%
    21:00 +29°C° 0.1 mm 2 mps 758 mmHg 78%
    22:00 +28°C° 0.1 mm 2 mps 759 mmHg 83%
    23:00 +28°C° 0.4 mm 2 mps 759 mmHg 83%

    23 November, Friday

    Time Temperature Precipitation Wind Pressure Humidity
    00:00 +28°C° 0.4 mm 2 mps 758 mmHg 84%
    01:00 +28°C° 0.4 mm 2 mps 758 mmHg 85%
    02:00 +27°C° 0.1 mm 2 mps 758 mmHg 86%
    03:00 +27°C° 0.1 mm 2 mps 757 mmHg 88%
    04:00 +27°C° 0.1 mm 2 mps 757 mmHg 89%
    05:00 +27°C° 0 mm 2 mps 757 mmHg 88%
    06:00 +27°C° 0 mm 2 mps 758 mmHg 87%
    07:00 +28°C° 0 mm 2 mps 759 mmHg 87%
    08:00 +29°C° 0 mm 3 mps 759 mmHg 79%
    09:00 +31°C° 0 mm 3 mps 759 mmHg 72%
    10:00 +33°C° 0 mm 3 mps 759 mmHg 64%
    11:00 +34°C° 0 mm 4 mps 758 mmHg 61%
    12:00 +34°C° 0 mm 4 mps 758 mmHg 57%
    13:00 +35°C° 0 mm 4 mps 757 mmHg 53%
    14:00 +35°C° 0 mm 4 mps 756 mmHg 55%
    15:00 +34°C° 0 mm 3 mps 756 mmHg 58%
    16:00 +34°C° 0 mm 3 mps 755 mmHg 60%
    17:00 +33°C° 0 mm 3 mps 756 mmHg 62%
    18:00 +31°C° 0 mm 3 mps 757 mmHg 65%
    19:00 +30°C° 0 mm 2 mps 757 mmHg 67%
    20:00 +29°C° 0 mm 2 mps 757 mmHg 68%
    21:00 +29°C° 0 mm 2 mps 758 mmHg 69%
    22:00 +29°C° 0 mm 2 mps 758 mmHg 70%
    23:00 +28°C° 0 mm 2 mps 758 mmHg 71%

    24 November, Saturday

    Time Temperature Precipitation Wind Pressure Humidity
    00:00 +28°C° 0 mm 2 mps 757 mmHg 73%
    01:00 +28°C° 0 mm 2 mps 757 mmHg 74%
    02:00 +28°C° 0 mm 2 mps 757 mmHg 75%
    03:00 +27°C° 0 mm 2 mps 756 mmHg 77%
    04:00 +27°C° 0 mm 2 mps 756 mmHg 78%
    05:00 +27°C° 0 mm 2 mps 757 mmHg 79%
    06:00 +27°C° 0 mm 2 mps 757 mmHg 80%
    07:00 +28°C° 0 mm 2 mps 758 mmHg 81%
    08:00 +29°C° 0 mm 3 mps 758 mmHg 75%
    09:00 +30°C° 0 mm 4 mps 758 mmHg 69%
    10:00 +33°C° 0 mm 4 mps 758 mmHg 63%
    11:00 +33°C° 0 mm 5 mps 757 mmHg 61%
    12:00 +34°C° 0 mm 5 mps 757 mmHg 59%
    13:00 +35°C° 0 mm 6 mps 756 mmHg 57%
    14:00 +34°C° 0 mm 5 mps 756 mmHg 59%
    15:00 +34°C° 0 mm 4 mps 755 mmHg 62%
    16:00 +33°C° 0 mm 3 mps 755 mmHg 64%
    17:00 +31°C° 0 mm 3 mps 755 mmHg 67%
    18:00 +30°C° 0 mm 3 mps 756 mmHg 69%
    19:00 +29°C° 0 mm 3 mps 756 mmHg 71%
    20:00 +29°C° 0 mm 3 mps 756 mmHg 72%
    21:00 +29°C° 0 mm 3 mps 757 mmHg 73%
    22:00 +29°C° 0 mm 3 mps 757 mmHg 74%
    23:00 +28°C° 0 mm 3 mps 756 mmHg 75%

    25 November, Sunday

    Time Temperature Precipitation Wind Pressure Humidity
    00:00 +28°C° 0 mm 3 mps 756 mmHg 76%
    01:00 +28°C° 0 mm 3 mps 756 mmHg 77%
    02:00 +28°C° 0 mm 3 mps 756 mmHg 76%
    03:00 +28°C° 0 mm 3 mps 755 mmHg 76%
    04:00 +28°C° 0 mm 3 mps 755 mmHg 75%
    05:00 +28°C° 0 mm 3 mps 755 mmHg 75%
    06:00 +27°C° 0 mm 3 mps 756 mmHg 75%
    07:00 +27°C° 0 mm 3 mps 756 mmHg 76%
    08:00 +28°C° 0 mm 3 mps 757 mmHg 72%
    09:00 +29°C° 0 mm 3 mps 757 mmHg 69%
    10:00 +30°C° 0 mm 4 mps 757 mmHg 66%
    11:00 +30°C° 0 mm 3 mps 757 mmHg 65%
    12:00 +31°C° 0 mm 3 mps 756 mmHg 64%
    13:00 +31°C° 0 mm 3 mps 755 mmHg 63%
    14:00 +31°C° 0.2 mm 3 mps 755 mmHg 63%
    15:00 +31°C° 0.2 mm 3 mps 755 mmHg 63%
    16:00 +31°C° 0.2 mm 3 mps 754 mmHg 64%
    17:00 +30°C° 0 mm 3 mps 755 mmHg 67%
    18:00 +29°C° 0 mm 2 mps 756 mmHg 70%
    19:00 +28°C° 0 mm 1 mps 756 mmHg 73%
    20:00 +28°C° 0 mm 1 mps 757 mmHg 73%
    21:00 +28°C° 0 mm 1 mps 757 mmHg 74%
    22:00 +28°C° 0 mm 2 mps 758 mmHg 74%
    23:00 +27°C° 0 mm 2 mps 757 mmHg 76%
    Show more